FENGYUN 1C DEB, 30317

Orbit data source: Space-Track

FENGYUN 1C DEB, 30317 is space debris in SSO originally from a launch on Mon, 10 May 1999 UTC launched from the Taiyaun Space Center, China (TSC). Fengyun 1C debris stems from the Chinese weather satellite Fengyun-1C, which was intentionally destroyed by a Chinese anti-satellite missile in 2007. This event dramatically increased the amount of space debris, with thousands of trackable fragments posing hazards to satellites and human spaceflight. The Fengyun 1C debris cloud has become a focal point in discussions about space sustainability and the need for international regulations to prevent the creation of new debris.

Loading next visibility...
Identifier
30317, 1999-025AAE
Orbit
SSO
Country
Flag of CNCN / PRC
Related business
Manufacturer
Unknown
Mission
Spacecraft
Bus & Motor
Unknown
Mass
Unknown
Launch date (UTC)
1999-05-10 (27 years ago)
Launch vehicle
Unknown
Launch site
Taiyaun Space Center, China (TSC)
Object type
Payload
Rocket body
Debris
Shape & HBR
Unknown shape, 0.1 m
Radar Cross Section
Small (<0.1 m²)

Expand to show TLE details & history
Last TLE update: 8 hours ago

TLE from 8 hours ago
0 FENGYUN 1C DEB
1 30317U 99025AAE 25349.92892635  .00000387  00000-0  25732-3 0  9996
2 30317  98.7865 350.3110 0024108 267.3823  92.4586 14.06949941970588
Epoch: 2025-12-15T22:17Z
TLE epoch observation values (Epoch: 2025-12-15T22:17:39.236Z)
Latitude
-0.00006°
Longitude
-68.92292°
Altitude
873.514 km
Speed
7.415 km/s
True Right ascension
23h 21m 14s
True Declination
0° 00' 00"
Sunlit
Object was in daylight at epoch
Visualization orbit readout
Latitude
Unknown
Longitude
Unknown
Altitude
Unknown
Speed
Unknown
Apparent Right ascension
Unknown
Apparent Declination
Unknown
Sunlit
N/A
Visualization observer readout
Local Sidereal Time
05:18:15
Azimuth
Unknown
Elevation
Unknown
Doppler factor
Unknown
Orbital elements
Apogee altitude
884.474 km
Perigee altitude
849.541 km
Semi-major axis
7,245.145 km
Eccentricity
0.00241
Inclination
98.7865°
RAAN
350.311°
Arg. of periapsis
267.3823°
True anomaly
92.73457°
Mean anomaly
92.4586°
Eccentric anomaly
92.59659°
Mean motion
3.51943 °/min
Orbital period
102.29 mins
BSTAR
0.00025732
Loading maneuver chart data...
Computing Atmospheric mass density...

Documentation

Showing up to 5 results
|